Time,TemperatureF,DewpointF,PressureIn,WindDirection,WindDirectionDegrees,WindSpeedMPH,WindSpeedGustMPH,Humidity,HourlyPrecipIn,Conditions,Clouds,dailyrainin,SoftwareType,DateUTC
2013-03-12 00:00:00,46.0,45.0,29.97,WSW,247,8.0,14.0,95,0.00,,,0.00,TxWx,2013-03-12 04:00:00,
2013-03-12 00:02:00,46.0,45.0,29.97,WSW,247,8.0,10.0,95,0.00,,,0.00,TxWx,2013-03-12 04:02:00,
2013-03-12 00:03:00,46.0,45.0,29.98,WSW,247,5.0,11.0,95,0.00,,,0.00,TxWx,2013-03-12 04:03:00,
2013-03-12 00:08:00,45.0,44.0,29.98,SW,225,9.0,11.0,95,0.00,,,0.00,TxWx,2013-03-12 04:08:00,
2013-03-12 00:13:00,45.0,44.0,29.98,WSW,247,8.0,16.0,95,0.00,,,0.00,TxWx,2013-03-12 04:13:00,
2013-03-12 00:18:00,43.0,42.0,29.98,SSW,202,9.0,16.0,96,0.00,,,0.00,TxWx,2013-03-12 04:18:00,
2013-03-12 00:24:00,42.0,41.0,29.98,SSW,202,6.0,11.0,96,0.00,,,0.00,TxWx,2013-03-12 04:24:00,
2013-03-12 00:29:00,42.0,41.0,29.98,SW,225,10.0,12.0,98,0.00,,,0.00,TxWx,2013-03-12 04:29:00,
2013-03-12 00:35:00,42.0,41.0,29.99,SW,225,8.0,11.0,98,0.00,,,0.00,TxWx,2013-03-12 04:35:00,
2013-03-12 00:40:00,42.0,42.0,29.99,WSW,247,11.0,11.0,99,0.00,,,0.00,TxWx,2013-03-12 04:40:00,
2013-03-12 00:45:00,42.0,42.0,29.99,SW,225,6.0,10.0,99,0.00,,,0.00,TxWx,2013-03-12 04:45:00,
2013-03-12 00:51:00,42.0,42.0,30.00,SW,225,5.0,12.0,99,0.00,,,0.00,TxWx,2013-03-12 04:51:00,
2013-03-12 00:56:00,42.0,42.0,29.99,SW,225,8.0,9.0,99,0.00,,,0.00,TxWx,2013-03-12 04:56:00,
2013-03-12 01:01:00,42.0,42.0,30.00,SW,225,10.0,16.0,99,0.00,,,0.00,TxWx,2013-03-12 05:01:00,
2013-03-12 01:07:00,42.0,41.0,30.00,WSW,247,6.0,7.0,98,0.00,,,0.00,TxWx,2013-03-12 05:07:00,
2013-03-12 01:12:00,42.0,41.0,30.00,SW,225,6.0,10.0,98,0.00,,,0.00,TxWx,2013-03-12 05:12:00,
2013-03-12 01:17:00,42.0,41.0,30.00,WSW,247,8.0,11.0,98,0.00,,,0.00,TxWx,2013-03-12 05:17:00,
2013-03-12 01:23:00,42.0,41.0,30.00,SW,225,6.0,11.0,98,0.00,,,0.00,TxWx,2013-03-12 05:23:00,
2013-03-12 01:28:00,42.0,41.0,30.00,SSE,157,6.0,16.0,98,0.00,,,0.00,TxWx,2013-03-12 05:28:00,
2013-03-12 01:34:00,42.0,41.0,29.99,SW,225,8.0,11.0,98,0.00,,,0.00,TxWx,2013-03-12 05:34:00,
2013-03-12 01:42:00,41.0,40.0,30.00,WSW,247,6.0,13.0,98,0.00,,,0.00,TxWx,2013-03-12 05:42:00,
2013-03-12 01:48:00,41.0,40.0,30.01,South,180,7.0,14.0,97,0.00,,,0.00,TxWx,2013-03-12 05:48:00,
2013-03-12 01:53:00,41.0,40.0,30.01,SW,225,6.0,14.0,96,0.00,,,0.00,TxWx,2013-03-12 05:53:00,
2013-03-12 01:59:00,41.0,40.0,30.01,SW,225,6.0,10.0,96,0.00,,,0.00,TxWx,2013-03-12 05:59:00,
2013-03-12 02:04:00,41.0,40.0,30.01,SW,225,13.0,13.0,96,0.00,,,0.00,TxWx,2013-03-12 06:04:00,
2013-03-12 02:10:00,40.0,39.0,30.02,WSW,247,12.0,14.0,96,0.00,,,0.00,TxWx,2013-03-12 06:10:00,
2013-03-12 02:15:00,40.0,39.0,30.02,SW,225,8.0,11.0,96,0.00,,,0.00,TxWx,2013-03-12 06:15:00,
2013-03-12 02:21:00,40.0,39.0,30.02,WSW,247,6.0,13.0,96,0.00,,,0.00,TxWx,2013-03-12 06:21:00,
2013-03-12 02:26:00,39.0,38.0,30.03,SW,225,8.0,14.0,96,0.00,,,0.00,TxWx,2013-03-12 06:26:00,
2013-03-12 02:31:00,39.0,38.0,30.02,SW,225,10.0,13.0,96,0.00,,,0.00,TxWx,2013-03-12 06:31:00,
2013-03-12 02:37:00,39.0,38.0,30.03,West,270,8.0,13.0,95,0.00,,,0.00,TxWx,2013-03-12 06:37:00,
2013-03-12 02:42:00,39.0,38.0,30.03,SW,225,8.0,10.0,95,0.00,,,0.00,TxWx,2013-03-12 06:42:00,
2013-03-12 02:47:00,39.0,37.0,30.02,WSW,247,11.0,21.0,94,0.00,,,0.00,TxWx,2013-03-12 06:47:00,
2013-03-12 02:53:00,39.0,37.0,30.02,SSW,202,7.0,12.0,93,0.00,,,0.00,TxWx,2013-03-12 06:53:00,
2013-03-12 02:58:00,39.0,37.0,30.02,SW,225,10.0,14.0,92,0.00,,,0.00,TxWx,2013-03-12 06:58:00,
2013-03-12 03:03:00,39.0,37.0,30.03,SW,225,11.0,19.0,92,0.00,,,0.00,TxWx,2013-03-12 07:03:00,
2013-03-12 03:09:00,38.0,36.0,30.02,SW,225,15.0,19.0,91,0.00,,,0.00,TxWx,2013-03-12 07:09:00,
2013-03-12 03:14:00,38.0,35.0,30.02,SW,225,8.0,16.0,91,0.00,,,0.00,TxWx,2013-03-12 07:14:00,
2013-03-12 03:19:00,38.0,36.0,30.02,SW,225,11.0,16.0,92,0.00,,,0.00,TxWx,2013-03-12 07:19:00,
2013-03-12 03:25:00,38.0,36.0,30.03,West,270,9.0,14.0,92,0.00,,,0.00,TxWx,2013-03-12 07:25:00,
2013-03-12 03:30:00,38.0,36.0,30.03,SW,225,10.0,14.0,92,0.00,,,0.00,TxWx,2013-03-12 07:30:00,
2013-03-12 03:36:00,38.0,36.0,30.03,SW,225,11.0,12.0,92,0.00,,,0.00,TxWx,2013-03-12 07:36:00,
2013-03-12 03:42:00,37.0,35.0,30.03,SW,225,13.0,16.0,93,0.00,,,0.00,TxWx,2013-03-12 07:42:00,
2013-03-12 03:48:00,37.0,35.0,30.03,WSW,247,6.0,16.0,93,0.00,,,0.00,TxWx,2013-03-12 07:48:00,
2013-03-12 03:54:00,36.0,34.0,30.03,SSW,202,7.0,12.0,94,0.00,,,0.00,TxWx,2013-03-12 07:54:00,
2013-03-12 03:59:00,36.0,34.0,30.03,SW,225,10.0,15.0,94,0.00,,,0.00,TxWx,2013-03-12 07:59:00,
2013-03-12 04:04:00,36.0,35.0,30.03,SW,225,9.0,11.0,95,0.00,,,0.00,TxWx,2013-03-12 08:04:00,
2013-03-12 04:11:00,36.0,35.0,30.03,SW,225,10.0,12.0,95,0.00,,,0.00,TxWx,2013-03-12 08:11:00,
2013-03-12 04:17:00,36.0,35.0,30.03,SW,225,8.0,13.0,95,0.00,,,0.00,TxWx,2013-03-12 08:17:00,
2013-03-12 04:22:00,36.0,34.0,30.03,WSW,247,7.0,16.0,94,0.00,,,0.00,TxWx,2013-03-12 08:22:00,
2013-03-12 04:27:00,36.0,35.0,30.04,SW,225,6.0,10.0,95,0.00,,,0.00,TxWx,2013-03-12 08:27:00,
2013-03-12 04:34:00,35.0,34.0,30.04,SSE,157,5.0,16.0,95,0.00,,,0.00,TxWx,2013-03-12 08:34:00,
2013-03-12 04:39:00,35.0,34.0,30.04,SSW,202,13.0,14.0,95,0.00,,,0.00,TxWx,2013-03-12 08:39:00,
2013-03-12 04:44:00,35.0,34.0,30.04,WSW,247,10.0,14.0,95,0.00,,,0.00,TxWx,2013-03-12 08:44:00,
2013-03-12 04:50:00,35.0,34.0,30.04,SSW,202,7.0,13.0,95,0.00,,,0.00,TxWx,2013-03-12 08:50:00,
2013-03-12 04:55:00,35.0,34.0,30.04,SW,225,9.0,13.0,95,0.00,,,0.00,TxWx,2013-03-12 08:55:00,
2013-03-12 05:00:00,35.0,33.0,30.04,SSW,202,9.0,14.0,94,0.00,,,0.00,TxWx,2013-03-12 09:00:00,
2013-03-12 05:06:00,36.0,34.0,30.05,South,180,7.0,11.0,94,0.00,,,0.00,TxWx,2013-03-12 09:06:00,
2013-03-12 05:11:00,36.0,34.0,30.05,SSW,202,7.0,13.0,94,0.00,,,0.00,TxWx,2013-03-12 09:11:00,
2013-03-12 05:18:00,36.0,34.0,30.05,SW,225,10.0,18.0,93,0.00,,,0.00,TxWx,2013-03-12 09:18:00,
2013-03-12 05:23:00,36.0,34.0,30.05,WSW,247,17.0,17.0,92,0.00,,,0.00,TxWx,2013-03-12 09:23:00,
2013-03-12 05:28:00,36.0,34.0,30.05,SW,225,8.0,11.0,91,0.00,,,0.00,TxWx,2013-03-12 09:28:00,
2013-03-12 05:33:00,36.0,34.0,30.05,NW,315,6.0,13.0,92,0.00,,,0.00,TxWx,2013-03-12 09:33:00,
2013-03-12 05:39:00,36.0,34.0,30.05,SW,225,13.0,16.0,92,0.00,,,0.00,TxWx,2013-03-12 09:39:00,
2013-03-12 05:44:00,36.0,34.0,30.06,SW,225,5.0,11.0,92,0.00,,,0.00,TxWx,2013-03-12 09:44:00,
2013-03-12 05:49:00,36.0,34.0,30.06,WSW,247,10.0,13.0,92,0.00,,,0.00,TxWx,2013-03-12 09:49:00,
2013-03-12 05:55:00,36.0,34.0,30.06,SW,225,8.0,9.0,91,0.00,,,0.00,TxWx,2013-03-12 09:55:00,
2013-03-12 06:00:00,36.0,34.0,30.07,SW,225,7.0,14.0,91,0.00,,,0.00,TxWx,2013-03-12 10:00:00,
2013-03-12 06:05:00,36.0,34.0,30.07,WSW,247,8.0,12.0,91,0.00,,,0.00,TxWx,2013-03-12 10:05:00,
2013-03-12 06:11:00,36.0,34.0,30.07,WSW,247,6.0,11.0,91,0.00,,,0.00,TxWx,2013-03-12 10:11:00,
2013-03-12 06:16:00,36.0,34.0,30.07,SW,225,8.0,10.0,91,0.00,,,0.00,TxWx,2013-03-12 10:16:00,
2013-03-12 06:22:00,36.0,33.0,30.07,SW,225,8.0,14.0,91,0.00,,,0.00,TxWx,2013-03-12 10:22:00,
2013-03-12 06:28:00,36.0,33.0,30.07,SW,225,14.0,15.0,91,0.00,,,0.00,TxWx,2013-03-12 10:28:00,
2013-03-12 06:33:00,36.0,33.0,30.08,SW,225,8.0,16.0,90,0.00,,,0.00,TxWx,2013-03-12 10:33:00,
2013-03-12 06:38:00,36.0,33.0,30.08,WSW,247,10.0,15.0,90,0.00,,,0.00,TxWx,2013-03-12 10:38:00,
2013-03-12 06:44:00,36.0,33.0,30.08,SSE,157,5.0,8.0,90,0.00,,,0.00,TxWx,2013-03-12 10:44:00,
2013-03-12 06:49:00,36.0,33.0,30.08,South,180,7.0,14.0,90,0.00,,,0.00,TxWx,2013-03-12 10:49:00,
2013-03-12 06:55:00,36.0,33.0,30.08,SSW,202,6.0,10.0,91,0.00,,,0.00,TxWx,2013-03-12 10:55:00,
2013-03-12 07:01:00,36.0,33.0,30.08,WSW,247,10.0,13.0,91,0.00,,,0.00,TxWx,2013-03-12 11:01:00,
2013-03-12 07:06:00,36.0,34.0,30.08,SW,225,8.0,10.0,91,0.00,,,0.00,TxWx,2013-03-12 11:06:00,
2013-03-12 07:12:00,35.0,33.0,30.07,SW,225,7.0,11.0,91,0.00,,,0.00,TxWx,2013-03-12 11:12:00,
2013-03-12 07:17:00,36.0,34.0,30.08,SSW,202,8.0,10.0,91,0.00,,,0.00,TxWx,2013-03-12 11:17:00,
2013-03-12 07:22:00,35.0,33.0,30.08,SW,225,6.0,12.0,92,0.00,,,0.00,TxWx,2013-03-12 11:22:00,
2013-03-12 07:27:00,36.0,34.0,30.08,SW,225,10.0,13.0,91,0.00,,,0.00,TxWx,2013-03-12 11:27:00,
2013-03-12 07:33:00,36.0,33.0,30.08,SW,225,8.0,13.0,91,0.00,,,0.00,TxWx,2013-03-12 11:33:00,
2013-03-12 07:38:00,36.0,33.0,30.08,WSW,247,6.0,11.0,91,0.00,,,0.00,TxWx,2013-03-12 11:38:00,
2013-03-12 07:43:00,36.0,33.0,30.08,WSW,247,8.0,16.0,90,0.00,,,0.00,TxWx,2013-03-12 11:43:00,
2013-03-12 07:48:00,36.0,33.0,30.08,SW,225,9.0,13.0,90,0.00,,,0.00,TxWx,2013-03-12 11:48:00,
2013-03-12 07:54:00,36.0,33.0,30.08,West,270,6.0,11.0,90,0.00,,,0.00,TxWx,2013-03-12 11:54:00,
2013-03-12 07:59:00,36.0,33.0,30.09,SW,225,8.0,13.0,90,0.00,,,0.00,TxWx,2013-03-12 11:59:00,
2013-03-12 08:04:00,36.0,33.0,30.09,West,270,8.0,10.0,89,0.00,,,0.00,TxWx,2013-03-12 12:04:00,
2013-03-12 08:10:00,36.0,33.0,30.09,WSW,247,10.0,11.0,89,0.00,,,0.00,TxWx,2013-03-12 12:10:00,
2013-03-12 08:15:00,36.0,33.0,30.09,West,270,6.0,10.0,89,0.00,,,0.00,TxWx,2013-03-12 12:15:00,
2013-03-12 08:20:00,36.0,33.0,30.09,WSW,247,8.0,11.0,88,0.00,,,0.00,TxWx,2013-03-12 12:20:00,
2013-03-12 08:26:00,36.0,33.0,30.09,WSW,247,7.0,8.0,88,0.00,,,0.00,TxWx,2013-03-12 12:26:00,
2013-03-12 08:31:00,36.0,33.0,30.10,SW,225,3.0,10.0,88,0.00,,,0.00,TxWx,2013-03-12 12:31:00,
2013-03-12 08:37:00,36.0,33.0,30.09,WSW,247,8.0,8.0,88,0.00,,,0.00,TxWx,2013-03-12 12:37:00,
2013-03-12 08:42:00,37.0,33.0,30.10,WSW,247,7.0,11.0,86,0.00,,,0.00,TxWx,2013-03-12 12:42:00,
2013-03-12 08:47:00,37.0,33.0,30.10,WSW,247,6.0,10.0,85,0.00,,,0.00,TxWx,2013-03-12 12:47:00,
2013-03-12 08:52:00,37.0,32.0,30.10,WSW,247,9.0,15.0,84,0.00,,,0.00,TxWx,2013-03-12 12:52:00,
2013-03-12 08:58:00,37.0,32.0,30.10,WSW,247,10.0,13.0,83,0.00,,,0.00,TxWx,2013-03-12 12:58:00,
2013-03-12 09:03:00,37.0,32.0,30.10,WSW,247,6.0,9.0,84,0.00,,,0.00,TxWx,2013-03-12 13:03:00,
2013-03-12 09:08:00,37.0,32.0,30.10,SW,225,6.0,13.0,83,0.00,,,0.00,TxWx,2013-03-12 13:08:00,
2013-03-12 09:13:00,37.0,32.0,30.10,WSW,247,11.0,12.0,83,0.00,,,0.00,TxWx,2013-03-12 13:13:00,
2013-03-12 09:19:00,37.0,32.0,30.10,WSW,247,7.0,15.0,84,0.00,,,0.00,TxWx,2013-03-12 13:19:00,
2013-03-12 09:24:00,37.0,32.0,30.10,WNW,292,11.0,19.0,84,0.00,,,0.00,TxWx,2013-03-12 13:24:00,
2013-03-12 09:29:00,37.0,33.0,30.10,WSW,247,13.0,13.0,84,0.00,,,0.00,TxWx,2013-03-12 13:29:00,
2013-03-12 09:34:00,37.0,32.0,30.09,WSW,247,9.0,19.0,83,0.00,,,0.00,TxWx,2013-03-12 13:34:00,
2013-03-12 09:40:00,37.0,32.0,30.10,West,270,8.0,15.0,83,0.00,,,0.00,TxWx,2013-03-12 13:40:00,
2013-03-12 09:45:00,38.0,33.0,30.10,West,270,6.0,16.0,83,0.00,,,0.00,TxWx,2013-03-12 13:45:00,
2013-03-12 09:50:00,38.0,33.0,30.10,WSW,247,11.0,16.0,82,0.00,,,0.00,TxWx,2013-03-12 13:50:00,
2013-03-12 09:56:00,38.0,33.0,30.10,SW,225,13.0,19.0,81,0.00,,,0.00,TxWx,2013-03-12 13:56:00,
2013-03-12 10:01:00,38.0,33.0,30.09,NW,315,8.0,16.0,81,0.00,,,0.00,TxWx,2013-03-12 14:01:00,
2013-03-12 10:07:00,38.0,33.0,30.09,West,270,6.0,23.0,81,0.00,,,0.00,TxWx,2013-03-12 14:07:00,
2013-03-12 10:12:00,38.0,33.0,30.09,WSW,247,10.0,14.0,81,0.00,,,0.00,TxWx,2013-03-12 14:12:00,
2013-03-12 10:17:00,38.0,33.0,30.09,WSW,247,6.0,15.0,81,0.00,,,0.00,TxWx,2013-03-12 14:17:00,
2013-03-12 10:22:00,38.0,33.0,30.10,WNW,292,14.0,18.0,81,0.00,,,0.00,TxWx,2013-03-12 14:22:00,
2013-03-12 10:28:00,38.0,33.0,30.10,West,270,8.0,16.0,81,0.00,,,0.00,TxWx,2013-03-12 14:28:00,
2013-03-12 10:33:00,38.0,32.0,30.10,WSW,247,15.0,23.0,80,0.00,,,0.00,TxWx,2013-03-12 14:33:00,
2013-03-12 10:38:00,38.0,33.0,30.10,West,270,19.0,19.0,81,0.00,,,0.00,TxWx,2013-03-12 14:38:00,
2013-03-12 10:44:00,38.0,33.0,30.10,WSW,247,5.0,8.0,81,0.00,,,0.00,TxWx,2013-03-12 14:44:00,
2013-03-12 10:50:00,37.0,31.0,30.11,SW,225,11.0,21.0,81,0.00,,,0.00,TxWx,2013-03-12 14:50:00,
2013-03-12 10:56:00,37.0,31.0,30.11,NW,315,7.0,11.0,81,0.00,,,0.00,TxWx,2013-03-12 14:56:00,
2013-03-12 11:01:00,37.0,31.0,30.11,SW,225,10.0,16.0,82,0.00,,,0.00,TxWx,2013-03-12 15:01:00,
2013-03-12 11:07:00,37.0,32.0,30.11,WSW,247,5.0,10.0,82,0.00,,,0.00,TxWx,2013-03-12 15:07:00,
2013-03-12 11:12:00,37.0,32.0,30.11,West,270,6.0,8.0,82,0.00,,,0.00,TxWx,2013-03-12 15:12:00,
2013-03-12 11:17:00,37.0,31.0,30.10,WSW,247,5.0,11.0,81,0.00,,,0.00,TxWx,2013-03-12 15:17:00,
2013-03-12 11:23:00,37.0,31.0,30.10,West,270,6.0,10.0,81,0.00,,,0.00,TxWx,2013-03-12 15:23:00,
2013-03-12 11:28:00,37.0,32.0,30.11,WSW,247,3.0,8.0,82,0.00,,,0.00,TxWx,2013-03-12 15:28:00,
2013-03-12 11:33:00,37.0,31.0,30.11,WSW,247,8.0,11.0,82,0.00,,,0.00,TxWx,2013-03-12 15:33:00,
2013-03-12 11:39:00,37.0,31.0,30.11,SW,225,10.0,14.0,82,0.00,,,0.00,TxWx,2013-03-12 15:39:00,
2013-03-12 11:44:00,36.0,30.0,30.11,WSW,247,12.0,13.0,83,0.00,,,0.00,TxWx,2013-03-12 15:44:00,
2013-03-12 11:49:00,36.0,31.0,30.11,SW,225,9.0,15.0,84,0.00,,,0.00,TxWx,2013-03-12 15:49:00,
2013-03-12 11:54:00,36.0,31.0,30.11,SW,225,10.0,13.0,85,0.00,,,0.00,TxWx,2013-03-12 15:54:00,
2013-03-12 12:00:00,36.0,31.0,30.11,WSW,247,13.0,16.0,85,0.00,,,0.00,TxWx,2013-03-12 16:00:00,
2013-03-12 12:05:00,36.0,32.0,30.11,WSW,247,10.0,17.0,86,0.00,,,0.00,TxWx,2013-03-12 16:05:00,
2013-03-12 12:10:00,36.0,32.0,30.11,West,270,5.0,11.0,87,0.00,,,0.00,TxWx,2013-03-12 16:10:00,
2013-03-12 12:15:00,36.0,33.0,30.11,SW,225,9.0,12.0,87,0.00,,,0.00,TxWx,2013-03-12 16:15:00,
2013-03-12 12:21:00,36.0,33.0,30.11,WSW,247,10.0,19.0,88,0.00,,,0.00,TxWx,2013-03-12 16:21:00,
2013-03-12 12:26:00,36.0,33.0,30.11,SSW,202,5.0,9.0,88,0.00,,,0.00,TxWx,2013-03-12 16:26:00,
2013-03-12 12:32:00,36.0,33.0,30.11,WSW,247,5.0,11.0,88,0.00,,,0.00,TxWx,2013-03-12 16:32:00,
2013-03-12 12:37:00,36.0,33.0,30.11,West,270,6.0,12.0,88,0.00,,,0.00,TxWx,2013-03-12 16:37:00,
2013-03-12 12:42:00,36.0,33.0,30.11,WSW,247,8.0,16.0,89,0.00,,,0.00,TxWx,2013-03-12 16:42:00,
2013-03-12 12:47:00,36.0,33.0,30.11,SW,225,9.0,13.0,88,0.00,,,0.00,TxWx,2013-03-12 16:47:00,
2013-03-12 12:53:00,36.0,32.0,30.11,WSW,247,8.0,13.0,87,0.00,,,0.00,TxWx,2013-03-12 16:53:00,
2013-03-12 12:58:00,36.0,32.0,30.11,WSW,247,9.0,12.0,86,0.00,,,0.00,TxWx,2013-03-12 16:58:00,
2013-03-12 13:04:00,36.0,32.0,30.11,WSW,247,10.0,15.0,86,0.00,,,0.00,TxWx,2013-03-12 17:04:00,
2013-03-12 13:09:00,36.0,31.0,30.11,SSW,202,9.0,12.0,85,0.00,,,0.00,TxWx,2013-03-12 17:09:00,
2013-03-12 13:15:00,36.0,31.0,30.11,West,270,6.0,13.0,85,0.00,,,0.00,TxWx,2013-03-12 17:15:00,
2013-03-12 13:20:00,36.0,30.0,30.11,SW,225,6.0,16.0,84,0.00,,,0.00,TxWx,2013-03-12 17:20:00,
2013-03-12 13:27:00,36.0,30.0,30.11,SW,225,7.0,8.0,84,0.00,,,0.00,TxWx,2013-03-12 17:27:00,
2013-03-12 13:33:00,36.0,31.0,30.11,SW,225,10.0,19.0,84,0.00,,,0.00,TxWx,2013-03-12 17:33:00,
2013-03-12 13:39:00,36.0,31.0,30.11,SW,225,7.0,12.0,85,0.00,,,0.00,TxWx,2013-03-12 17:39:00,
2013-03-12 13:44:00,36.0,32.0,30.11,WSW,247,10.0,13.0,86,0.00,,,0.00,TxWx,2013-03-12 17:44:00,
2013-03-12 13:50:00,36.0,31.0,30.11,SW,225,12.0,13.0,84,0.00,,,0.00,TxWx,2013-03-12 17:50:00,
2013-03-12 13:55:00,36.0,31.0,30.11,SSW,202,6.0,10.0,85,0.00,,,0.00,TxWx,2013-03-12 17:55:00,
2013-03-12 14:00:00,36.0,31.0,30.11,SW,225,11.0,14.0,85,0.00,,,0.00,TxWx,2013-03-12 18:00:00,
2013-03-12 14:05:00,36.0,32.0,30.11,West,270,10.0,12.0,86,0.00,,,0.00,TxWx,2013-03-12 18:05:00,
2013-03-12 14:11:00,36.0,32.0,30.11,WSW,247,4.0,11.0,86,0.00,,,0.00,TxWx,2013-03-12 18:11:00,
2013-03-12 14:19:00,35.0,30.0,30.11,SW,225,16.0,16.0,86,0.00,,,0.00,TxWx,2013-03-12 18:19:00,
2013-03-12 14:25:00,35.0,30.0,30.11,WSW,247,11.0,14.0,86,0.00,,,0.00,TxWx,2013-03-12 18:25:00,
2013-03-12 14:30:00,36.0,32.0,30.11,SW,225,21.0,21.0,86,0.00,,,0.00,TxWx,2013-03-12 18:30:00,
2013-03-12 14:36:00,35.0,30.0,30.11,SW,225,7.0,13.0,86,0.00,,,0.00,TxWx,2013-03-12 18:36:00,
2013-03-12 14:41:00,35.0,30.0,30.11,WSW,247,19.0,19.0,86,0.00,,,0.00,TxWx,2013-03-12 18:41:00,
2013-03-12 14:47:00,35.0,30.0,30.10,WSW,247,8.0,16.0,86,0.00,,,0.00,TxWx,2013-03-12 18:47:00,
2013-03-12 14:52:00,35.0,30.0,30.11,WSW,247,16.0,21.0,86,0.00,,,0.00,TxWx,2013-03-12 18:52:00,
2013-03-12 14:57:00,35.0,30.0,30.10,SW,225,7.0,11.0,87,0.00,,,0.00,TxWx,2013-03-12 18:57:00,
2013-03-12 15:03:00,35.0,30.0,30.10,SSW,202,13.0,17.0,86,0.00,,,0.00,TxWx,2013-03-12 19:03:00,
2013-03-12 15:09:00,35.0,30.0,30.10,WSW,247,10.0,19.0,86,0.00,,,0.00,TxWx,2013-03-12 19:09:00,
2013-03-12 15:15:00,35.0,30.0,30.10,West,270,6.0,26.0,86,0.00,,,0.00,TxWx,2013-03-12 19:15:00,
2013-03-12 15:20:00,35.0,30.0,30.10,WSW,247,14.0,19.0,86,0.00,,,0.00,TxWx,2013-03-12 19:20:00,
2013-03-12 15:25:00,36.0,31.0,30.10,WSW,247,14.0,21.0,85,0.00,,,0.00,TxWx,2013-03-12 19:25:00,
2013-03-12 15:31:00,36.0,32.0,30.11,SW,225,8.0,11.0,86,0.00,,,0.00,TxWx,2013-03-12 19:31:00,
2013-03-12 15:36:00,36.0,31.0,30.10,WSW,247,8.0,16.0,85,0.00,,,0.00,TxWx,2013-03-12 19:36:00,
2013-03-12 15:41:00,37.0,32.0,30.10,WSW,247,17.0,20.0,83,0.00,,,0.00,TxWx,2013-03-12 19:41:00,
2013-03-12 15:48:00,37.0,31.0,30.10,WSW,247,13.0,22.0,82,0.00,,,0.00,TxWx,2013-03-12 19:48:00,
2013-03-12 15:53:00,37.0,31.0,30.10,West,270,14.0,20.0,81,0.00,,,0.00,TxWx,2013-03-12 19:53:00,
2013-03-12 15:58:00,37.0,31.0,30.11,WSW,247,14.0,19.0,81,0.00,,,0.00,TxWx,2013-03-12 19:58:00,
2013-03-12 16:05:00,37.0,30.0,30.11,SW,225,10.0,18.0,79,0.00,,,0.00,TxWx,2013-03-12 20:05:00,
2013-03-12 16:11:00,37.0,30.0,30.11,West,270,8.0,18.0,79,0.00,,,0.00,TxWx,2013-03-12 20:11:00,
2013-03-12 16:16:00,37.0,30.0,30.11,WSW,247,10.0,23.0,78,0.00,,,0.00,TxWx,2013-03-12 20:16:00,
2013-03-12 16:21:00,37.0,30.0,30.11,WSW,247,10.0,18.0,79,0.00,,,0.00,TxWx,2013-03-12 20:21:00,
2013-03-12 16:28:00,37.0,30.0,30.11,SW,225,9.0,26.0,79,0.00,,,0.00,TxWx,2013-03-12 20:28:00,
2013-03-12 16:33:00,37.0,30.0,30.11,WSW,247,10.0,14.0,80,0.00,,,0.00,TxWx,2013-03-12 20:33:00,
2013-03-12 16:38:00,36.0,30.0,30.12,SSW,202,16.0,23.0,81,0.00,,,0.00,TxWx,2013-03-12 20:38:00,
2013-03-12 16:44:00,36.0,30.0,30.12,WSW,247,5.0,16.0,83,0.00,,,0.00,TxWx,2013-03-12 20:44:00,
2013-03-12 16:50:00,36.0,30.0,30.12,WSW,247,13.0,18.0,83,0.00,,,0.00,TxWx,2013-03-12 20:50:00,
2013-03-12 16:56:00,36.0,30.0,30.12,SW,225,11.0,20.0,83,0.00,,,0.00,TxWx,2013-03-12 20:56:00,
2013-03-12 17:01:00,36.0,30.0,30.12,West,270,3.0,13.0,83,0.00,,,0.00,TxWx,2013-03-12 21:01:00,
2013-03-12 17:07:00,36.0,30.0,30.13,West,270,5.0,14.0,82,0.00,,,0.00,TxWx,2013-03-12 21:07:00,
2013-03-12 17:13:00,36.0,30.0,30.13,West,270,13.0,18.0,82,0.00,,,0.00,TxWx,2013-03-12 21:13:00,
2013-03-12 17:18:00,36.0,30.0,30.13,SW,225,11.0,20.0,82,0.00,,,0.00,TxWx,2013-03-12 21:18:00,
2013-03-12 17:24:00,36.0,30.0,30.13,WSW,247,8.0,13.0,82,0.00,,,0.00,TxWx,2013-03-12 21:24:00,
2013-03-12 17:29:00,36.0,30.0,30.13,West,270,14.0,19.0,82,0.00,,,0.00,TxWx,2013-03-12 21:29:00,
2013-03-12 17:36:00,36.0,30.0,30.13,SW,225,9.0,16.0,84,0.00,,,0.00,TxWx,2013-03-12 21:36:00,
2013-03-12 17:43:00,35.0,30.0,30.14,West,270,11.0,13.0,84,0.00,,,0.00,TxWx,2013-03-12 21:43:00,
2013-03-12 17:49:00,35.0,30.0,30.14,SSW,202,8.0,12.0,84,0.00,,,0.00,TxWx,2013-03-12 21:49:00,
2013-03-12 17:54:00,35.0,30.0,30.13,SW,225,8.0,19.0,85,0.00,,,0.00,TxWx,2013-03-12 21:54:00,
2013-03-12 18:00:00,35.0,30.0,30.14,WSW,247,10.0,11.0,85,0.00,,,0.00,TxWx,2013-03-12 22:00:00,
2013-03-12 18:05:00,35.0,30.0,30.14,WSW,247,12.0,18.0,84,0.00,,,0.00,TxWx,2013-03-12 22:05:00,
2013-03-12 18:12:00,35.0,30.0,30.14,SW,225,8.0,16.0,84,0.00,,,0.00,TxWx,2013-03-12 22:12:00,
2013-03-12 18:18:00,35.0,30.0,30.14,WSW,247,10.0,16.0,85,0.00,,,0.00,TxWx,2013-03-12 22:18:00,
2013-03-12 18:23:00,35.0,30.0,30.14,WSW,247,14.0,18.0,85,0.00,,,0.00,TxWx,2013-03-12 22:23:00,
2013-03-12 18:29:00,35.0,30.0,30.14,West,270,8.0,18.0,85,0.00,,,0.00,TxWx,2013-03-12 22:29:00,
2013-03-12 18:36:00,35.0,30.0,30.14,WSW,247,10.0,13.0,85,0.00,,,0.00,TxWx,2013-03-12 22:36:00,
2013-03-12 18:41:00,35.0,30.0,30.14,WSW,247,10.0,18.0,85,0.00,,,0.00,TxWx,2013-03-12 22:41:00,
2013-03-12 18:46:00,35.0,30.0,30.15,SW,225,8.0,16.0,85,0.00,,,0.00,TxWx,2013-03-12 22:46:00,
2013-03-12 18:52:00,35.0,30.0,30.15,SW,225,15.0,15.0,86,0.00,,,0.00,TxWx,2013-03-12 22:52:00,
2013-03-12 18:57:00,35.0,30.0,30.14,WSW,247,9.0,18.0,86,0.00,,,0.00,TxWx,2013-03-12 22:57:00,
2013-03-12 19:03:00,35.0,30.0,30.15,SW,225,10.0,14.0,86,0.00,,,0.00,TxWx,2013-03-12 23:03:00,
2013-03-12 19:08:00,35.0,30.0,30.15,West,270,12.0,21.0,86,0.00,,,0.00,TxWx,2013-03-12 23:08:00,
2013-03-12 19:13:00,35.0,30.0,30.15,SW,225,10.0,13.0,86,0.00,,,0.00,TxWx,2013-03-12 23:13:00,
2013-03-12 19:19:00,35.0,30.0,30.15,NW,315,4.0,12.0,86,0.00,,,0.00,TxWx,2013-03-12 23:19:00,
2013-03-12 19:24:00,34.0,29.0,30.15,WSW,247,8.0,13.0,86,0.00,,,0.00,TxWx,2013-03-12 23:24:00,
2013-03-12 19:30:00,34.0,29.0,30.15,SSW,202,8.0,12.0,86,0.00,,,0.00,TxWx,2013-03-12 23:30:00,
2013-03-12 19:36:00,34.0,29.0,30.15,WSW,247,8.0,16.0,86,0.00,,,0.00,TxWx,2013-03-12 23:36:00,
2013-03-12 19:41:00,34.0,29.0,30.16,SSW,202,4.0,11.0,86,0.00,,,0.00,TxWx,2013-03-12 23:41:00,
2013-03-12 19:47:00,34.0,29.0,30.16,WSW,247,6.0,11.0,86,0.00,,,0.00,TxWx,2013-03-12 23:47:00,
2013-03-12 19:52:00,34.0,29.0,30.16,WSW,247,4.0,12.0,86,0.00,,,0.00,TxWx,2013-03-12 23:52:00,
2013-03-12 19:58:00,34.0,29.0,30.16,West,270,5.0,11.0,87,0.00,,,0.00,TxWx,2013-03-12 23:58:00,
2013-03-12 20:04:00,34.0,30.0,30.17,SW,225,8.0,14.0,87,0.00,,,0.00,TxWx,2013-03-13 00:04:00,
2013-03-12 20:09:00,34.0,30.0,30.16,West,270,4.0,13.0,88,0.00,,,0.00,TxWx,2013-03-13 00:09:00,
2013-03-12 20:15:00,33.0,29.0,30.17,SSW,202,10.0,10.0,88,0.00,,,0.00,TxWx,2013-03-13 00:15:00,
2013-03-12 20:20:00,33.0,29.0,30.16,SSW,202,6.0,10.0,88,0.00,,,0.00,TxWx,2013-03-13 00:20:00,
2013-03-12 20:26:00,33.0,29.0,30.17,WSW,247,8.0,11.0,88,0.00,,,0.00,TxWx,2013-03-13 00:26:00,
2013-03-12 20:31:00,33.0,29.0,30.17,SW,225,10.0,10.0,87,0.00,,,0.00,TxWx,2013-03-13 00:31:00,
2013-03-12 20:37:00,33.0,29.0,30.17,SW,225,10.0,13.0,87,0.00,,,0.00,TxWx,2013-03-13 00:37:00,
2013-03-12 20:42:00,34.0,30.0,30.17,SW,225,6.0,13.0,88,0.00,,,0.00,TxWx,2013-03-13 00:42:00,
2013-03-12 20:47:00,34.0,30.0,30.17,WSW,247,6.0,11.0,88,0.00,,,0.00,TxWx,2013-03-13 00:47:00,
2013-03-12 20:53:00,34.0,30.0,30.17,WSW,247,11.0,13.0,88,0.00,,,0.00,TxWx,2013-03-13 00:53:00,
2013-03-12 20:58:00,34.0,30.0,30.17,WSW,247,6.0,10.0,88,0.00,,,0.00,TxWx,2013-03-13 00:58:00,
2013-03-12 21:03:00,34.0,30.0,30.17,SW,225,8.0,10.0,88,0.00,,,0.00,TxWx,2013-03-13 01:03:00,
2013-03-12 21:08:00,34.0,30.0,30.17,SSW,202,10.0,10.0,88,0.00,,,0.00,TxWx,2013-03-13 01:08:00,
2013-03-12 21:14:00,34.0,30.0,30.17,SW,225,12.0,12.0,88,0.00,,,0.00,TxWx,2013-03-13 01:14:00,
2013-03-12 21:19:00,34.0,30.0,30.17,SSW,202,7.0,10.0,87,0.00,,,0.00,TxWx,2013-03-13 01:19:00,
2013-03-12 21:25:00,34.0,29.0,30.18,SW,225,5.0,11.0,87,0.00,,,0.00,TxWx,2013-03-13 01:25:00,
2013-03-12 21:30:00,34.0,29.0,30.18,SW,225,8.0,11.0,86,0.00,,,0.00,TxWx,2013-03-13 01:30:00,
2013-03-12 21:35:00,34.0,29.0,30.18,NW,315,6.0,16.0,86,0.00,,,0.00,TxWx,2013-03-13 01:35:00,
2013-03-12 21:41:00,34.0,29.0,30.18,WSW,247,8.0,19.0,86,0.00,,,0.00,TxWx,2013-03-13 01:41:00,
2013-03-12 21:47:00,34.0,29.0,30.18,SW,225,6.0,10.0,86,0.00,,,0.00,TxWx,2013-03-13 01:47:00,
2013-03-12 21:52:00,34.0,29.0,30.18,WSW,247,9.0,10.0,86,0.00,,,0.00,TxWx,2013-03-13 01:52:00,
2013-03-12 21:58:00,34.0,29.0,30.18,WSW,247,10.0,12.0,86,0.00,,,0.00,TxWx,2013-03-13 01:58:00,
2013-03-12 22:03:00,33.0,28.0,30.18,WSW,247,10.0,19.0,86,0.00,,,0.00,TxWx,2013-03-13 02:03:00,
2013-03-12 22:09:00,34.0,29.0,30.18,ENE,67,4.0,13.0,86,0.00,,,0.00,TxWx,2013-03-13 02:09:00,
2013-03-12 22:14:00,34.0,29.0,30.18,SW,225,8.0,12.0,86,0.00,,,0.00,TxWx,2013-03-13 02:14:00,
2013-03-12 22:20:00,34.0,29.0,30.18,SW,225,9.0,10.0,86,0.00,,,0.00,TxWx,2013-03-13 02:20:00,
2013-03-12 22:26:00,33.0,28.0,30.17,WSW,247,6.0,13.0,86,0.00,,,0.00,TxWx,2013-03-13 02:26:00,
2013-03-12 22:31:00,33.0,28.0,30.18,SW,225,9.0,9.0,86,0.00,,,0.00,TxWx,2013-03-13 02:31:00,
2013-03-12 22:37:00,33.0,28.0,30.18,SW,225,9.0,14.0,86,0.00,,,0.00,TxWx,2013-03-13 02:37:00,
2013-03-12 22:43:00,33.0,28.0,30.18,WSW,247,10.0,11.0,86,0.00,,,0.00,TxWx,2013-03-13 02:43:00,
2013-03-12 22:48:00,33.0,28.0,30.17,WSW,247,8.0,18.0,86,0.00,,,0.00,TxWx,2013-03-13 02:48:00,
2013-03-12 22:53:00,33.0,28.0,30.18,SW,225,9.0,16.0,86,0.00,,,0.00,TxWx,2013-03-13 02:53:00,
2013-03-12 23:00:00,33.0,28.0,30.18,SW,225,8.0,10.0,85,0.00,,,0.00,TxWx,2013-03-13 03:00:00,
2013-03-12 23:05:00,33.0,28.0,30.17,SW,225,9.0,14.0,85,0.00,,,0.00,TxWx,2013-03-13 03:05:00,
2013-03-12 23:10:00,33.0,27.0,30.18,SW,225,11.0,17.0,83,0.00,,,0.00,TxWx,2013-03-13 03:10:00,
2013-03-12 23:16:00,33.0,27.0,30.18,WSW,247,9.0,13.0,83,0.00,,,0.00,TxWx,2013-03-13 03:16:00,
2013-03-12 23:22:00,33.0,27.0,30.17,SW,225,14.0,18.0,83,0.00,,,0.00,TxWx,2013-03-13 03:22:00,
2013-03-12 23:27:00,33.0,27.0,30.17,SW,225,14.0,15.0,83,0.00,,,0.00,TxWx,2013-03-13 03:27:00,
2013-03-12 23:32:00,33.0,27.0,30.18,SW,225,9.0,13.0,83,0.00,,,0.00,TxWx,2013-03-13 03:32:00,
2013-03-12 23:37:00,33.0,27.0,30.18,SSW,202,7.0,10.0,83,0.00,,,0.00,TxWx,2013-03-13 03:37:00,
2013-03-12 23:44:00,33.0,27.0,30.18,WSW,247,11.0,14.0,83,0.00,,,0.00,TxWx,2013-03-13 03:44:00,
2013-03-12 23:49:00,33.0,28.0,30.18,SW,225,4.0,11.0,84,0.00,,,0.00,TxWx,2013-03-13 03:49:00,
2013-03-12 23:54:00,33.0,28.0,30.18,SW,225,14.0,14.0,84,0.00,,,0.00,TxWx,2013-03-13 03:54:00,